Weather History for Birmingham, AL

Change the Weather History Date:

Friday, January 4, 2013

  Actual Average Record
Temperature  
Mean Temperature 38 °F 44 °F  
Max Temperature 50 °F 53 °F 75 °F (1950)
Min Temperature 27 °F 34 °F 4 °F (1919)
Degree Days  
Heating Degree Days 26 21  
Month to date heating degree days 84  
Since 1 July heating degree days 1131  
Moisture  
Dew Point 25 °F    
Average Humidity 66    
Maximum Humidity 92    
Minimum Humidity 31    
Precipitation  
Precipitation 0.00 in 0.14 in 2.78 in (1949)
Month to date precipitation 0.55  
Year to date precipitation 0.55  
Snow  
Snow 0.00 in 0.10 in - ()
Month to date snowfall 0.1  
Since 1 July snowfall 0.2  
Snow Depth -    
Sea Level Pressure  
Sea Level Pressure 30.42 in    
Wind  
Wind Speed 2 mph (North)    
Max Wind Speed 8 mph    
Max Gust Speed -    
Visibility 9 miles    
Events      
T = Trace of Precipitation, MM = Missing Value Source: NWS Daily Summary

Daily Weather History Graph

Daily Weather History Graph

Search for Another Location

Airport:

Trip Planner

Search our weather history database for the weather conditions in past years. The results will help you decide how hot, cold, wet, or windy it might be!

Date:

Astronomy

Jan. 04, 2013 Rise Set
Actual Time 6:51 AM CST 4:52 PM CST
Civil Twilight 6:24 AM CST 5:19 PM CST
Nautical Twilight 5:53 AM CST 5:50 PM CST
Astronomical Twilight 5:23 AM CST 6:21 PM CST
Moon No Moon Rise 10:56 AM CST (1/4)
Length of Visible Light 10h 55m
Length of Day
10h 00m
Waning Gibbous, 55% of the Moon is Illuminated
Jan 4
Waning Gibbous
Jan 4
Last Quarter
Jan 11
New
Jan 18
First Quarter
Jan 26
Full

Hourly Weather History & Observations

Time (CST) Temp. Windchill Dew Point Humidity Pressure Visibility Wind Dir Wind Speed Gust Speed Precip Events Conditions
12:53 AM 28.9 °F 25.2 °F 27.0 °F 92% 30.39 in 8.0 mi ESE 3.5 mph - N/A   Clear
1:53 AM 28.0 °F - 26.1 °F 92% 30.41 in 7.0 mi Calm Calm - N/A   Clear
2:53 AM 28.0 °F - 26.1 °F 92% 30.40 in 7.0 mi Calm Calm - N/A   Clear
3:53 AM 27.0 °F - 24.1 °F 89% 30.39 in 7.0 mi Calm Calm - N/A   Clear
4:53 AM 27.0 °F - 24.1 °F 89% 30.41 in 8.0 mi Calm Calm - N/A   Clear
5:53 AM 27.0 °F - 24.1 °F 89% 30.43 in 8.0 mi Calm Calm - N/A   Clear
6:53 AM 27.0 °F - 25.0 °F 92% 30.44 in 6.0 mi Calm Calm - N/A   Clear
7:53 AM 30.0 °F - 27.0 °F 88% 30.45 in 6.0 mi Calm Calm - N/A   Clear
8:53 AM 35.1 °F - 28.0 °F 76% 30.47 in 7.0 mi Calm Calm - N/A   Clear
9:53 AM 41.0 °F 39.0 °F 27.0 °F 57% 30.48 in 10.0 mi NW 3.5 mph - N/A   Clear
10:53 AM 45.0 °F - 24.1 °F 44% 30.46 in 10.0 mi Calm Calm - N/A   Clear
11:53 AM 46.9 °F - 24.1 °F 41% 30.44 in 10.0 mi NW 5.8 mph - N/A   Clear
12:53 PM 48.9 °F - 21.0 °F 33% 30.41 in 10.0 mi NW 8.1 mph - N/A   Clear
1:53 PM 50.0 °F - 21.9 °F 33% 30.39 in 10.0 mi NNW 6.9 mph - N/A   Clear
2:53 PM 50.0 °F - 19.9 °F 31% 30.39 in 10.0 mi North 6.9 mph - N/A   Clear
3:53 PM 50.0 °F - 21.0 °F 32% 30.40 in 10.0 mi North 8.1 mph - N/A   Clear
4:53 PM 44.1 °F 41.5 °F 23.0 °F 43% 30.41 in 10.0 mi North 4.6 mph - N/A   Clear
5:53 PM 41.0 °F 39.0 °F 25.0 °F 53% 30.42 in 10.0 mi NNE 3.5 mph - N/A   Clear
7:53 PM 39.0 °F 35.7 °F 24.1 °F 55% 30.43 in 10.0 mi NE 4.6 mph - N/A   Clear
8:53 PM 33.8 °F - 24.8 °F 70% 30.41 in 10.0 mi Calm Calm - N/A   Clear
9:53 PM 35.1 °F - 27.0 °F 72% 30.43 in 10.0 mi Calm Calm - N/A   Clear
10:53 PM 32.0 °F - 26.1 °F 79% 30.43 in 10.0 mi Calm Calm - N/A   Clear
11:53 PM 32.0 °F - 26.1 °F 79% 30.40 in 10.0 mi Calm Calm - N/A   Clear